| time (UTC) | temp F | wind direction | speed knots | gust knots | rain 1hr in | rain 24hr in | rain mn in | humidity % | barometer mb |
| 20260505165033 | 74 | 87 | 1.7 | 2.6 | 0.00 | 0.00 | 0.00 | 87 | 1009.1 |
| 20260505164529 | 74 | 156 | 2.6 | 2.6 | 0.00 | 0.00 | 0.00 | 88 | 1009.1 |
| 20260505164027 | 73 | 169 | 1.7 | 1.7 | 0.00 | 0.00 | 0.00 | 88 | 1009.0 |
| 20260505163526 | 74 | 166 | 0.9 | 1.7 | 0.00 | 0.00 | 0.00 | 88 | 1009.0 |
| 20260505163022 | 73 | 184 | 0.9 | 1.7 | 0.00 | 0.00 | 0.00 | 89 | 1008.9 |
| 20260505162515 | 73 | 99 | 1.7 | 2.6 | 0.00 | 0.00 | 0.00 | 89 | 1008.9 |
| 20260505162012 | 73 | 171 | 1.7 | 1.7 | 0.00 | 0.00 | 0.00 | 90 | 1008.9 |
| 20260505161509 | 73 | 154 | 2.6 | 2.6 | 0.00 | 0.00 | 0.00 | 90 | 1008.8 |
| 20260505161006 | 72 | 156 | 1.7 | 1.7 | 0.00 | 0.00 | 0.00 | 90 | 1009.0 |
| 20260505160504 | 72 | 216 | 2.6 | 2.6 | 0.00 | 0.00 | 0.00 | 91 | 1009.1 |
| 20260505152940 | 71 | 166 | 1.7 | 1.7 | 0.00 | 0.00 | 0.00 | 93 | 1008.7 |
| 20260505152437 | 71 | 185 | 0.9 | 0.9 | 0.00 | 0.00 | 0.00 | 93 | 1008.6 |
| 20260505151932 | 71 | 188 | 1.7 | 1.7 | 0.00 | 0.00 | 0.00 | 94 | 1008.8 |
| 20260505151428 | 70 | 156 | 2.6 | 2.6 | 0.00 | 0.00 | 0.00 | 94 | 1008.8 |
| 20260505150925 | 70 | 194 | 0.9 | 1.7 | 0.00 | 0.00 | 0.00 | 94 | 1008.8 |
| 20260505150422 | 70 | 141 | 2.6 | 2.6 | 0.00 | 0.00 | 0.00 | 94 | 1008.6 |
| 20260505140346 | 69 | 183 | 0.9 | 0.9 | 0.00 | 0.00 | 0.00 | 96 | 1008.8 |
| 20260505130309 | 69 | 117 | 1.7 | 2.6 | 0.00 | 0.00 | 0.00 | 94 | 1008.2 |
| 20260505124800 | 69 | 154 | 1.7 | 1.7 | 0.00 | 0.00 | 0.00 | 94 | 1007.9 |
| 20260505124257 | 69 | 107 | 3.5 | 5.2 | 0.00 | 0.00 | 0.00 | 93 | 1007.7 |
| 20260505123752 | 69 | 94 | 3.5 | 4.3 | 0.00 | 0.00 | 0.00 | 93 | 1007.8 |
| 20260505123249 | 69 | 159 | 1.7 | 1.7 | 0.00 | 0.00 | 0.00 | 94 | 1008.0 |
| 20260505122745 | 69 | 104 | 2.6 | 2.6 | 0.00 | 0.00 | 0.00 | 94 | 1007.8 |
| 20260505122243 | 69 | 106 | 2.6 | 2.6 | 0.00 | 0.00 | 0.00 | 94 | 1007.6 |
| 20260505121740 | 69 | 166 | 1.7 | 1.7 | 0.00 | 0.00 | 0.00 | 94 | 1007.8 |
| 20260505121236 | 69 | 168 | 1.7 | 1.7 | 0.00 | 0.00 | 0.00 | 94 | 1007.4 |
| 20260505120733 | 69 | 234 | 0.9 | 1.7 | 0.00 | 0.00 | 0.00 | 94 | 1007.5 |
| 20260505120229 | 69 | 273 | 1.7 | 1.7 | 0.00 | 0.00 | 0.00 | 94 | 1007.4 |
| 20260505115727 | 69 | 116 | 2.6 | 2.6 | 0.00 | 0.00 | 0.00 | 94 | 1007.5 |
| 20260505115226 | 69 | 88 | 2.6 | 4.3 | 0.00 | 0.00 | 0.00 | 94 | 1007.4 |
| 20260505114722 | 69 | 108 | 2.6 | 2.6 | 0.00 | 0.00 | 0.00 | 94 | 1007.3 |
| 20260505114218 | 69 | 170 | 1.7 | 1.7 | 0.00 | 0.00 | 0.00 | 95 | 1007.5 |
| 20260505113715 | 69 | 140 | 2.6 | 2.6 | 0.00 | 0.00 | 0.00 | 95 | 1007.5 |
| 20260505113212 | 69 | 168 | 1.7 | 1.7 | 0.00 | 0.00 | 0.00 | 95 | 1007.3 |
| 20260505112708 | 69 | 64 | 1.7 | 1.7 | 0.00 | 0.00 | 0.00 | 94 | 1007.4 |
| 20260505112206 | 69 | 4 | 1.7 | 1.7 | 0.00 | 0.00 | 0.00 | 94 | 1007.4 |
| 20260505111706 | 69 | 172 | 0.9 | 1.7 | 0.00 | 0.00 | 0.00 | 94 | 1007.5 |
| 20260505111202 | 69 | 104 | 1.7 | 2.6 | 0.00 | 0.00 | 0.00 | 94 | 1007.4 |
| 20260505110658 | 69 | 156 | 1.7 | 1.7 | 0.00 | 0.00 | 0.00 | 94 | 1007.0 |
| 20260505110155 | 69 | 359 | 2.6 | 2.6 | 0.00 | 0.00 | 0.00 | 94 | 1007.1 |
| 20260505102131 | 69 | 105 | 2.6 | 2.6 | 0.00 | 0.00 | 0.00 | 93 | 1007.3 |
| 20260505101630 | 69 | 70 | 2.6 | 4.3 | 0.00 | 0.00 | 0.00 | 93 | 1007.3 |
| 20260505101125 | 69 | 100 | 2.6 | 2.6 | 0.00 | 0.00 | 0.00 | 93 | 1007.3 |
| 20260505100622 | 69 | 122 | 2.6 | 2.6 | 0.00 | 0.00 | 0.00 | 93 | 1007.5 |
| 20260505100119 | 69 | 118 | 1.7 | 1.7 | 0.00 | 0.00 | 0.00 | 93 | 1007.5 |
| 20260505095615 | 69 | 116 | 1.7 | 2.6 | 0.00 | 0.00 | 0.00 | 93 | 1007.7 |
| 20260505095112 | 69 | 93 | 2.6 | 4.3 | 0.00 | 0.00 | 0.00 | 93 | 1007.7 |
| 20260505094608 | 69 | 172 | 1.7 | 1.7 | 0.00 | 0.00 | 0.00 | 93 | 1007.5 |
| 20260505094104 | 69 | 121 | 1.7 | 1.7 | 0.00 | 0.00 | 0.00 | 93 | 1007.6 |
| 20260505093601 | 69 | 156 | 1.7 | 1.7 | 0.00 | 0.00 | 0.00 | 93 | 1007.6 |
| 20260505093058 | 69 | 128 | 2.6 | 2.6 | 0.00 | 0.00 | 0.00 | 93 | 1007.7 |
| 20260505092555 | 69 | 158 | 1.7 | 1.7 | 0.00 | 0.00 | 0.00 | 93 | 1007.6 |
| 20260505092054 | 69 | 262 | 2.6 | 2.6 | 0.00 | 0.00 | 0.00 | 93 | 1007.5 |
| 20260505091550 | 69 | 148 | 2.6 | 2.6 | 0.00 | 0.00 | 0.00 | 93 | 1007.4 |
| 20260505091049 | 69 | 98 | 2.6 | 2.6 | 0.00 | 0.00 | 0.00 | 93 | 1007.6 |
| 20260505090547 | 69 | 237 | 1.7 | 1.7 | 0.00 | 0.00 | 0.00 | 93 | 1007.6 |
| 20260505090044 | 69 | 184 | 0.9 | 0.9 | 0.00 | 0.00 | 0.00 | 92 | 1007.8 |
| 20260505085542 | 69 | 220 | 1.7 | 1.7 | 0.00 | 0.00 | 0.00 | 92 | 1007.9 |
| 20260505085040 | 69 | 72 | 2.6 | 2.6 | 0.00 | 0.00 | 0.00 | 92 | 1008.2 |
| 20260505084537 | 69 | 17 | 1.7 | 1.7 | 0.00 | 0.00 | 0.00 | 92 | 1007.8 |
| 20260505084035 | 69 | 123 | 1.7 | 2.6 | 0.00 | 0.00 | 0.00 | 92 | 1007.7 |
| 20260505083532 | 69 | 122 | 2.6 | 4.3 | 0.00 | 0.00 | 0.00 | 92 | 1007.9 |
| 20260505083029 | 69 | 273 | 1.7 | 1.7 | 0.00 | 0.00 | 0.00 | 92 | 1008.2 |
| 20260505082524 | 69 | 256 | 2.6 | 2.6 | 0.00 | 0.00 | 0.00 | 92 | 1007.8 |
| 20260505082021 | 69 | 224 | 1.7 | 2.6 | 0.00 | 0.00 | 0.00 | 92 | 1008.2 |
| 20260505081518 | 69 | 229 | 1.7 | 2.6 | 0.00 | 0.00 | 0.00 | 92 | 1008.2 |
| 20260505081015 | 69 | 34 | 1.7 | 2.6 | 0.00 | 0.00 | 0.00 | 92 | 1007.9 |
| 20260505080511 | 69 | 269 | 1.7 | 4.3 | 0.00 | 0.00 | 0.00 | 92 | 1008.3 |
| 20260505080008 | 69 | 104 | 2.6 | 2.6 | 0.00 | 0.00 | 0.00 | 92 | 1008.5 |
| 20260505075504 | 69 | 143 | 3.5 | 4.3 | 0.00 | 0.00 | 0.00 | 92 | 1008.5 |
| 20260505075001 | 69 | 104 | 1.7 | 1.7 | 0.00 | 0.00 | 0.00 | 92 | 1008.5 |
| 20260505074458 | 69 | 189 | 0.9 | 0.9 | 0.00 | 0.00 | 0.00 | 92 | 1008.5 |
| 20260505073955 | 69 | 104 | 2.6 | 2.6 | 0.00 | 0.00 | 0.00 | 91 | 1008.5 |
| 20260505073453 | 69 | 74 | 3.5 | 5.2 | 0.00 | 0.00 | 0.00 | 91 | 1008.4 |
| 20260505072950 | 69 | 186 | 1.7 | 1.7 | 0.00 | 0.00 | 0.00 | 91 | 1008.6 |
| 20260505072446 | 69 | 0 | 2.6 | 4.3 | 0.00 | 0.00 | 0.00 | 91 | 1008.8 |
| 20260505071942 | 69 | 40 | 1.7 | 2.6 | 0.00 | 0.00 | 0.00 | 91 | 1008.9 |
| 20260505071438 | 70 | 74 | 2.6 | 2.6 | 0.00 | 0.00 | 0.00 | 91 | 1008.8 |
| 20260505070937 | 70 | 353 | 2.6 | 2.6 | 0.00 | 0.00 | 0.00 | 91 | 1009.2 |
| 20260505070433 | 70 | 190 | 2.6 | 2.6 | 0.00 | 0.00 | 0.00 | 91 | 1009.3 |
| 20260505065929 | 70 | 162 | 1.7 | 1.7 | 0.00 | 0.00 | 0.00 | 91 | 1009.2 |
| 20260505065425 | 70 | 133 | 1.7 | 1.7 | 0.00 | 0.00 | 0.00 | 91 | 1009.1 |
| 20260505064922 | 70 | 210 | 1.7 | 1.7 | 0.00 | 0.00 | 0.00 | 91 | 1009.2 |
| 20260505064419 | 70 | 62 | 1.7 | 1.7 | 0.00 | 0.00 | 0.00 | 90 | 1009.3 |
| 20260505063918 | 70 | 245 | 3.5 | 4.3 | 0.00 | 0.00 | 0.00 | 90 | 1009.5 |
| 20260505063414 | 70 | 78 | 2.6 | 4.3 | 0.00 | 0.00 | 0.00 | 90 | 1009.5 |
| 20260505062910 | 70 | 130 | 2.6 | 2.6 | 0.00 | 0.00 | 0.00 | 90 | 1009.4 |
| 20260505062408 | 70 | 99 | 2.6 | 2.6 | 0.00 | 0.00 | 0.00 | 90 | 1009.5 |
| 20260505061904 | 70 | 226 | 2.6 | 2.6 | 0.00 | 0.00 | 0.00 | 90 | 1009.3 |
| 20260505061403 | 70 | 139 | 1.7 | 1.7 | 0.00 | 0.00 | 0.00 | 90 | 1009.7 |
| 20260505060900 | 70 | 152 | 2.6 | 2.6 | 0.00 | 0.00 | 0.00 | 90 | 1009.7 |
| 20260505060356 | 70 | 204 | 2.6 | 2.6 | 0.00 | 0.00 | 0.00 | 89 | 1009.6 |
| 20260505055852 | 70 | 103 | 1.7 | 2.6 | 0.00 | 0.00 | 0.00 | 89 | 1009.6 |
| 20260505055348 | 70 | 174 | 1.7 | 1.7 | 0.00 | 0.00 | 0.00 | 89 | 1009.5 |
| 20260505054846 | 70 | 226 | 0.9 | 1.7 | 0.00 | 0.00 | 0.00 | 89 | 1009.6 |
| 20260505054343 | 70 | 182 | 0.9 | 1.7 | 0.00 | 0.00 | 0.00 | 89 | 1009.8 |
| 20260505053841 | 70 | 33 | 4.3 | 6.1 | 0.00 | 0.00 | 0.00 | 89 | 1009.6 |
| 20260505053338 | 70 | 311 | 3.5 | 5.2 | 0.00 | 0.00 | 0.00 | 89 | 1009.8 |
| 20260505052834 | 71 | 292 | 2.6 | 4.3 | 0.00 | 0.00 | 0.00 | 89 | 1009.6 |
| 20260505052331 | 71 | 103 | 2.6 | 2.6 | 0.00 | 0.00 | 0.00 | 89 | 1009.7 |
| 20260505051829 | 71 | 24 | 2.6 | 2.6 | 0.00 | 0.00 | 0.00 | 89 | 1009.7 |
| 20260505051326 | 71 | 227 | 0.9 | 1.7 | 0.00 | 0.00 | 0.00 | 89 | 1009.9 |
| 20260505050824 | 71 | 133 | 1.7 | 1.7 | 0.00 | 0.00 | 0.00 | 89 | 1009.4 |
| 20260505050323 | 71 | 255 | 1.7 | 1.7 | 0.00 | 0.00 | 0.00 | 89 | 1009.4 |
| 20260505041752 | 72 | 16 | 1.7 | 2.6 | 0.00 | 0.00 | 0.00 | 85 | 1009.4 |
| 20260505041249 | 72 | 221 | 2.6 | 4.3 | 0.00 | 0.00 | 0.00 | 85 | 1009.5 |
| 20260505040747 | 72 | 224 | 0.9 | 1.7 | 0.00 | 0.00 | 0.00 | 85 | 1009.4 |
| 20260505040244 | 72 | 198 | 0.9 | 1.7 | 0.00 | 0.00 | 0.00 | 84 | 1009.6 |
| 20260505035741 | 71 | 202 | 0.9 | 1.7 | 0.00 | 0.00 | 0.00 | 85 | 1009.5 |
| 20260505035236 | 70 | 240 | 0.9 | 1.7 | 0.00 | 0.00 | 0.00 | 87 | 1009.6 |
| 20260505034734 | 70 | 243 | 0.9 | 0.9 | 0.00 | 0.00 | 0.00 | 87 | 1009.6 |
| 20260505034230 | 70 | 240 | 0.0 | 0.9 | 0.00 | 0.00 | 0.00 | 87 | 1009.6 |
| 20260505033727 | 70 | 238 | 0.9 | 0.9 | 0.00 | 0.00 | 0.00 | 87 | 1009.4 |
| 20260505033225 | 70 | 254 | 0.9 | 0.9 | 0.00 | 0.00 | 0.00 | 87 | 1009.5 |
| 20260505032723 | 70 | 252 | 0.0 | 0.9 | 0.00 | 0.00 | 0.00 | 87 | 1009.5 |
| 20260505032218 | 70 | 250 | 0.0 | 0.9 | 0.00 | 0.00 | 0.00 | 86 | 1009.7 |
| 20260505031716 | 71 | 254 | 0.9 | 1.7 | 0.00 | 0.00 | 0.00 | 86 | 1009.6 |
| 20260505031212 | 71 | 246 | 0.0 | 0.0 | 0.00 | 0.00 | 0.00 | 85 | 1009.5 |
| 20260505030709 | 71 | 246 | 0.0 | 0.9 | 0.00 | 0.00 | 0.00 | 84 | 1009.4 |
| 20260505030205 | 71 | 242 | 0.0 | 0.9 | 0.00 | 0.00 | 0.00 | 84 | 1009.4 |
| 20260505025701 | 71 | 245 | 0.9 | 0.9 | 0.00 | 0.00 | 0.00 | 84 | 1009.5 |
| 20260505025200 | 72 | 240 | 0.0 | 0.9 | 0.00 | 0.00 | 0.00 | 83 | 1009.5 |
| 20260505024657 | 72 | 239 | 0.0 | 0.9 | 0.00 | 0.00 | 0.00 | 83 | 1009.5 |
| 20260505024154 | 72 | 224 | 0.9 | 0.9 | 0.00 | 0.00 | 0.00 | 83 | 1009.4 |
| 20260505023651 | 72 | 221 | 0.0 | 0.0 | 0.00 | 0.00 | 0.00 | 82 | 1009.6 |
| 20260505023149 | 72 | 223 | 0.9 | 0.9 | 0.00 | 0.00 | 0.00 | 82 | 1009.4 |
| 20260505022646 | 72 | 251 | 0.9 | 1.7 | 0.00 | 0.00 | 0.00 | 81 | 1009.3 |
| 20260505022143 | 72 | 230 | 1.7 | 1.7 | 0.00 | 0.00 | 0.00 | 81 | 1009.6 |
| 20260505021639 | 72 | 222 | 0.9 | 0.9 | 0.00 | 0.00 | 0.00 | 81 | 1009.3 |
| 20260505021137 | 73 | 222 | 0.0 | 0.9 | 0.00 | 0.00 | 0.00 | 80 | 1009.2 |
| 20260505020632 | 73 | 205 | 0.0 | 0.9 | 0.00 | 0.00 | 0.00 | 79 | 1009.4 |
| 20260505020128 | 73 | 207 | 0.9 | 0.9 | 0.00 | 0.00 | 0.00 | 79 | 1009.4 |
| 20260505015626 | 73 | 206 | 0.0 | 0.9 | 0.00 | 0.00 | 0.00 | 78 | 1009.0 |
| 20260505015122 | 73 | 240 | 0.9 | 0.9 | 0.00 | 0.00 | 0.00 | 78 | 1009.2 |
| 20260505014619 | 73 | 238 | 0.0 | 0.0 | 0.00 | 0.00 | 0.00 | 78 | 1009.1 |
| 20260505014116 | 73 | 238 | 0.9 | 0.9 | 0.00 | 0.00 | 0.00 | 77 | 1009.2 |
| 20260505013613 | 74 | 239 | 0.9 | 0.9 | 0.00 | 0.00 | 0.00 | 76 | 1009.2 |
| 20260505013110 | 74 | 233 | 0.9 | 0.9 | 0.00 | 0.00 | 0.00 | 75 | 1009.1 |
| 20260505012609 | 75 | 228 | 0.9 | 0.9 | 0.00 | 0.00 | 0.00 | 74 | 1009.1 |
| 20260505012105 | 77 | 200 | 0.9 | 1.7 | 0.00 | 0.00 | 0.00 | 71 | 1008.9 |
| 20260505011601 | 77 | 204 | 0.9 | 0.9 | 0.00 | 0.00 | 0.00 | 70 | 1009.0 |
| 20260505011058 | 77 | 195 | 1.7 | 1.7 | 0.00 | 0.00 | 0.00 | 70 | 1009.0 |
| 20260505010553 | 78 | 159 | 2.6 | 2.6 | 0.00 | 0.00 | 0.00 | 69 | 1009.0 |
| 20260505010050 | 76 | 221 | 1.7 | 2.6 | 0.00 | 0.00 | 0.00 | 71 | 1008.9 |
| 20260505005546 | 76 | 219 | 0.9 | 1.7 | 0.00 | 0.00 | 0.00 | 72 | 1009.2 |
| 20260505005044 | 77 | 229 | 0.9 | 1.7 | 0.00 | 0.00 | 0.00 | 71 | 1009.0 |
| 20260505004541 | 77 | 156 | 1.7 | 1.7 | 0.00 | 0.00 | 0.00 | 70 | 1009.0 |
| 20260505004038 | 77 | 307 | 2.6 | 2.6 | 0.00 | 0.00 | 0.00 | 69 | 1008.8 |
| 20260505003535 | 77 | 122 | 2.6 | 2.6 | 0.00 | 0.00 | 0.00 | 68 | 1008.8 |
| 20260505003032 | 78 | 221 | 2.6 | 4.3 | 0.00 | 0.00 | 0.00 | 67 | 1008.7 |
| 20260505002527 | 78 | 81 | 3.5 | 4.3 | 0.00 | 0.00 | 0.00 | 68 | 1008.6 |
| 20260505002026 | 78 | 223 | 2.6 | 2.6 | 0.00 | 0.00 | 0.00 | 68 | 1008.8 |
| 20260505001523 | 78 | 6 | 2.6 | 2.6 | 0.00 | 0.00 | 0.00 | 67 | 1008.8 |
| 20260505001020 | 78 | 227 | 1.7 | 2.6 | 0.00 | 0.00 | 0.00 | 67 | 1008.8 |
| 20260505000517 | 78 | 37 | 1.7 | 1.7 | 0.00 | 0.00 | 0.00 | 67 | 1008.7 |
| 20260505000015 | 78 | 64 | 3.5 | 4.3 | 0.00 | 0.00 | 0.00 | 66 | 1008.8 |
| 20260504235511 | 78 | 343 | 2.6 | 2.6 | 0.00 | 0.00 | 0.00 | 66 | 1008.7 |
| 20260504235008 | 79 | 106 | 2.6 | 2.6 | 0.00 | 0.00 | 0.00 | 66 | 1009.0 |
| 20260504234505 | 80 | 268 | 3.5 | 5.2 | 0.00 | 0.00 | 0.00 | 64 | 1009.1 |
| 20260504234002 | 79 | 91 | 2.6 | 4.3 | 0.00 | 0.00 | 0.00 | 65 | 1009.1 |
| 20260504233457 | 79 | 93 | 1.7 | 1.7 | 0.00 | 0.00 | 0.00 | 65 | 1009.2 |
| 20260504232954 | 79 | 217 | 2.6 | 2.6 | 0.00 | 0.00 | 0.00 | 65 | 1008.9 |
| 20260504232451 | 79 | 31 | 5.2 | 7.8 | 0.00 | 0.00 | 0.00 | 64 | 1009.3 |
| 20260504231949 | 79 | 55 | 4.3 | 6.1 | 0.00 | 0.00 | 0.00 | 64 | 1009.4 |
| 20260504231445 | 79 | 87 | 2.6 | 2.6 | 0.00 | 0.00 | 0.00 | 64 | 1009.6 |
| 20260504230941 | 79 | 57 | 2.6 | 2.6 | 0.00 | 0.00 | 0.00 | 65 | 1009.2 |
| 20260504230438 | 79 | 254 | 1.7 | 2.6 | 0.00 | 0.00 | 0.00 | 64 | 1009.4 |
| 20260504225937 | 79 | 168 | 1.7 | 1.7 | 0.00 | 0.00 | 0.00 | 65 | 1009.5 |
| 20260504225434 | 80 | 161 | 2.6 | 4.3 | 0.00 | 0.00 | 0.00 | 64 | 1009.5 |
| 20260504224931 | 80 | 143 | 2.6 | 2.6 | 0.00 | 0.00 | 0.00 | 63 | 1009.7 |
| 20260504224427 | 80 | 181 | 1.7 | 1.7 | 0.00 | 0.00 | 0.00 | 64 | 1009.9 |
| 20260504223925 | 80 | 189 | 1.7 | 1.7 | 0.00 | 0.00 | 0.00 | 63 | 1009.7 |
| 20260504223420 | 80 | 142 | 2.6 | 2.6 | 0.00 | 0.00 | 0.00 | 63 | 1009.8 |
| 20260504222916 | 80 | 224 | 1.7 | 1.7 | 0.00 | 0.00 | 0.00 | 63 | 1009.8 |
| 20260504222414 | 80 | 282 | 2.6 | 2.6 | 0.00 | 0.00 | 0.00 | 64 | 1010.1 |
| 20260504221912 | 79 | 212 | 1.7 | 1.7 | 0.00 | 0.00 | 0.00 | 65 | 1010.1 |
| 20260504221408 | 79 | 32 | 3.5 | 5.2 | 0.00 | 0.00 | 0.00 | 64 | 1010.1 |
| 20260504220905 | 79 | 75 | 2.6 | 4.3 | 0.00 | 0.00 | 0.00 | 64 | 1010.2 |
| 20260504220402 | 79 | 68 | 2.6 | 4.3 | 0.00 | 0.00 | 0.00 | 64 | 1010.2 |
| 20260504215859 | 80 | 214 | 2.6 | 4.3 | 0.00 | 0.00 | 0.00 | 63 | 1010.1 |
| 20260504215355 | 80 | 311 | 2.6 | 2.6 | 0.00 | 0.00 | 0.00 | 63 | 1009.9 |
| 20260504214852 | 79 | 68 | 2.6 | 2.6 | 0.00 | 0.00 | 0.00 | 65 | 1010.2 |
| 20260504214348 | 79 | 40 | 4.3 | 5.2 | 0.00 | 0.00 | 0.00 | 63 | 1010.0 |
| 20260504213845 | 80 | 276 | 3.5 | 7.0 | 0.00 | 0.00 | 0.00 | 64 | 1010.4 |
| 20260504213341 | 80 | 116 | 2.6 | 2.6 | 0.00 | 0.00 | 0.00 | 64 | 1010.1 |
| 20260504212839 | 79 | 184 | 0.9 | 1.7 | 0.00 | 0.00 | 0.00 | 65 | 1010.2 |
| 20260504212334 | 79 | 45 | 3.5 | 5.2 | 0.00 | 0.00 | 0.00 | 64 | 1010.1 |
| 20260504211833 | 79 | 56 | 5.2 | 6.1 | 0.00 | 0.00 | 0.00 | 64 | 1010.5 |
| 20260504211328 | 79 | 132 | 2.6 | 2.6 | 0.00 | 0.00 | 0.00 | 64 | 1010.4 |
| 20260504210826 | 79 | 127 | 2.6 | 2.6 | 0.00 | 0.00 | 0.00 | 64 | 1010.4 |
| 20260504210323 | 80 | 33 | 2.6 | 2.6 | 0.00 | 0.00 | 0.00 | 62 | 1010.7 |
| 20260504205820 | 80 | 105 | 2.6 | 4.3 | 0.00 | 0.00 | 0.00 | 63 | 1010.7 |
| 20260504205318 | 80 | 69 | 3.5 | 4.3 | 0.00 | 0.00 | 0.00 | 62 | 1011.1 |
| 20260504204816 | 80 | 92 | 4.3 | 6.1 | 0.00 | 0.00 | 0.00 | 62 | 1010.9 |
| 20260504204314 | 80 | 148 | 2.6 | 2.6 | 0.00 | 0.00 | 0.00 | 63 | 1010.8 |
| 20260504203813 | 80 | 87 | 2.6 | 2.6 | 0.00 | 0.00 | 0.00 | 63 | 1011.2 |
| 20260504203309 | 79 | 115 | 4.3 | 5.2 | 0.00 | 0.00 | 0.00 | 63 | 1011.2 |
| 20260504202804 | 80 | 140 | 1.7 | 1.7 | 0.00 | 0.00 | 0.00 | 62 | 1011.5 |
| 20260504202304 | 80 | 96 | 2.6 | 2.6 | 0.00 | 0.00 | 0.00 | 63 | 1011.5 |
| 20260504201759 | 80 | 79 | 2.6 | 2.6 | 0.00 | 0.00 | 0.00 | 63 | 1011.4 |
| 20260504201256 | 80 | 79 | 2.6 | 4.3 | 0.00 | 0.00 | 0.00 | 63 | 1011.7 |
| 20260504200754 | 80 | 311 | 2.6 | 2.6 | 0.00 | 0.00 | 0.00 | 63 | 1011.3 |
| 20260504200249 | 79 | 59 | 3.5 | 4.3 | 0.00 | 0.00 | 0.00 | 63 | 1011.8 |
| 20260504195746 | 81 | 55 | 4.3 | 5.2 | 0.00 | 0.00 | 0.00 | 60 | 1011.8 |
| 20260504195242 | 80 | 90 | 2.6 | 2.6 | 0.00 | 0.00 | 0.00 | 63 | 1011.8 |
| 20260504194739 | 80 | 94 | 2.6 | 2.6 | 0.00 | 0.00 | 0.00 | 62 | 1011.7 |
| 20260504194235 | 80 | 29 | 4.3 | 5.2 | 0.00 | 0.00 | 0.00 | 62 | 1011.9 |
| 20260504193732 | 81 | 220 | 3.5 | 7.0 | 0.00 | 0.00 | 0.00 | 61 | 1011.7 |
| 20260504193229 | 81 | 126 | 2.6 | 2.6 | 0.00 | 0.00 | 0.00 | 62 | 1011.7 |
| 20260504192728 | 80 | 98 | 5.2 | 6.1 | 0.00 | 0.00 | 0.00 | 60 | 1011.8 |
| 20260504192225 | 80 | 53 | 2.6 | 2.6 | 0.00 | 0.00 | 0.00 | 61 | 1011.8 |
| 20260504191724 | 80 | 78 | 2.6 | 2.6 | 0.00 | 0.00 | 0.00 | 61 | 1012.1 |
| 20260504191220 | 80 | 15 | 3.5 | 4.3 | 0.00 | 0.00 | 0.00 | 61 | 1012.2 |
| 20260504190716 | 80 | 72 | 2.6 | 5.2 | 0.00 | 0.00 | 0.00 | 62 | 1012.3 |
| 20260504190212 | 80 | 31 | 2.6 | 2.6 | 0.00 | 0.00 | 0.00 | 61 | 1012.0 |
| 20260504185709 | 79 | 174 | 1.7 | 1.7 | 0.00 | 0.00 | 0.00 | 62 | 1012.3 |
| 20260504185205 | 79 | 70 | 3.5 | 5.2 | 0.00 | 0.00 | 0.00 | 63 | 1012.4 |
| 20260504184702 | 79 | 101 | 4.3 | 5.2 | 0.00 | 0.00 | 0.00 | 62 | 1012.5 |
| 20260504184157 | 79 | 65 | 4.3 | 6.1 | 0.00 | 0.00 | 0.00 | 63 | 1012.7 |
| 20260504183654 | 78 | 127 | 3.5 | 4.3 | 0.00 | 0.00 | 0.00 | 64 | 1012.6 |
| 20260504183151 | 78 | 89 | 2.6 | 2.6 | 0.00 | 0.00 | 0.00 | 63 | 1012.7 |
| 20260504182649 | 79 | 105 | 2.6 | 2.6 | 0.00 | 0.00 | 0.00 | 62 | 1013.0 |
| 20260504182146 | 79 | 77 | 2.6 | 2.6 | 0.00 | 0.00 | 0.00 | 63 | 1012.9 |
| 20260504181643 | 78 | 78 | 3.5 | 4.3 | 0.00 | 0.00 | 0.00 | 63 | 1013.2 |
| 20260504181141 | 78 | 110 | 3.5 | 5.2 | 0.00 | 0.00 | 0.00 | 64 | 1013.0 |
| 20260504180640 | 78 | 309 | 3.5 | 5.2 | 0.00 | 0.00 | 0.00 | 65 | 1013.1 |
| 20260504180138 | 77 | 19 | 1.7 | 1.7 | 0.00 | 0.00 | 0.00 | 66 | 1013.1 |
| 20260504175635 | 78 | 15 | 2.6 | 4.3 | 0.00 | 0.00 | 0.00 | 64 | 1012.9 |
| 20260504175132 | 77 | 78 | 4.3 | 5.2 | 0.00 | 0.00 | 0.00 | 65 | 1013.1 |
| 20260504174630 | 77 | 107 | 2.6 | 4.3 | 0.00 | 0.00 | 0.00 | 64 | 1013.3 |
| 20260504174126 | 78 | 17 | 1.7 | 2.6 | 0.00 | 0.00 | 0.00 | 65 | 1013.2 |
| 20260504173624 | 78 | 192 | 0.9 | 1.7 | 0.00 | 0.00 | 0.00 | 65 | 1013.5 |
| 20260504173121 | 76 | 55 | 3.5 | 4.3 | 0.00 | 0.00 | 0.00 | 67 | 1013.5 |
| 20260504172617 | 75 | 110 | 3.5 | 4.3 | 0.00 | 0.00 | 0.00 | 68 | 1013.6 |
| 20260504172114 | 76 | 100 | 2.6 | 2.6 | 0.00 | 0.00 | 0.00 | 69 | 1013.4 |
| 20260504171610 | 75 | 89 | 2.6 | 2.6 | 0.00 | 0.00 | 0.00 | 68 | 1013.5 |
| 20260504171108 | 73 | 63 | 2.6 | 5.2 | 0.00 | 0.00 | 0.00 | 72 | 1013.7 |
| 20260504170603 | 73 | 347 | 2.6 | 4.3 | 0.00 | 0.00 | 0.00 | 72 | 1013.8 |